• în Republica Moldova
  • Lista ţărilor
  • Pe 7 zile
  • Temperatura apei
  • Hartă satelitară
  • Meteo pe hartă
  • Widget-uri
  • user-avatar
    Intrare

    Meteo pe oră la Melbourne

    Astăzi, 22 August, Marţi

    Timp Temperatura Precipitaţii Vânt Presiune Umiditate
    00:00 +7°C° 0 mm 3 m/s 761 mmHg 87%
    01:00 +5°C° 0 mm 3 m/s 761 mmHg 88%
    02:00 +5°C° 0 mm 3 m/s 762 mmHg 89%
    03:00 +5°C° 0 mm 3 m/s 762 mmHg 90%
    04:00 +6°C° 0 mm 2 m/s 761 mmHg 91%
    05:00 +6°C° 0 mm 2 m/s 762 mmHg 91%
    06:00 +5°C° 0 mm 2 m/s 762 mmHg 92%
    07:00 +5°C° 0 mm 2 m/s 762 mmHg 92%
    08:00 +7°C° 0 mm 2 m/s 763 mmHg 83%
    09:00 +10°C° 0 mm 2 m/s 763 mmHg 74%
    10:00 +14°C° 0 mm 2 m/s 763 mmHg 65%
    11:00 +15°C° 0 mm 2 m/s 763 mmHg 61%
    12:00 +16°C° 0 mm 2 m/s 762 mmHg 57%
    13:00 +17°C° 0 mm 2 m/s 762 mmHg 53%
    14:00 +17°C° 0 mm 2 m/s 762 mmHg 57%
    15:00 +16°C° 0 mm 2 m/s 762 mmHg 60%
    16:00 +16°C° 0 mm 1 m/s 762 mmHg 67%
    17:00 +14°C° 0,1 mm 1 m/s 762 mmHg 73%
    18:00 +13°C° 0,1 mm 2 m/s 762 mmHg 79%
    19:00 +12°C° 0,1 mm 2 m/s 763 mmHg 86%
    20:00 +10°C° 0 mm 2 m/s 763 mmHg 87%
    21:00 +10°C° 0 mm 2 m/s 763 mmHg 88%
    22:00 +9°C° 0 mm 3 m/s 763 mmHg 89%
    23:00 +9°C° 0 mm 3 m/s 763 mmHg 89%

    Mâine, 23 August, Miercuri

    Timp Temperatura Precipitaţii Vânt Presiune Umiditate
    00:00 +9°C° 0 mm 3 m/s 763 mmHg 89%
    01:00 +8°C° 0 mm 3 m/s 763 mmHg 89%
    02:00 +8°C° 0 mm 3 m/s 763 mmHg 89%
    03:00 +9°C° 0 mm 3 m/s 763 mmHg 89%
    04:00 +9°C° 0 mm 3 m/s 763 mmHg 89%
    05:00 +9°C° 0 mm 3 m/s 763 mmHg 88%
    06:00 +9°C° 0 mm 3 m/s 763 mmHg 88%
    07:00 +9°C° 0 mm 3 m/s 763 mmHg 87%
    08:00 +10°C° 0 mm 3 m/s 763 mmHg 82%
    09:00 +12°C° 0 mm 4 m/s 762 mmHg 76%
    10:00 +13°C° 0 mm 4 m/s 762 mmHg 71%
    11:00 +14°C° 0,1 mm 4 m/s 762 mmHg 68%
    12:00 +15°C° 0,1 mm 4 m/s 761 mmHg 66%
    13:00 +17°C° 0,1 mm 4 m/s 761 mmHg 64%
    14:00 +15°C° 1 mm 4 m/s 761 mmHg 71%
    15:00 +14°C° 1 mm 5 m/s 761 mmHg 79%
    16:00 +13°C° 1 mm 5 m/s 760 mmHg 87%
    17:00 +12°C° 2,6 mm 4 m/s 761 mmHg 89%
    18:00 +11°C° 2,6 mm 4 m/s 761 mmHg 92%
    19:00 +10°C° 2,6 mm 3 m/s 762 mmHg 94%
    20:00 +9°C° 0,1 mm 3 m/s 762 mmHg 94%
    21:00 +8°C° 0,1 mm 3 m/s 763 mmHg 94%
    22:00 +8°C° 0,1 mm 3 m/s 763 mmHg 93%
    23:00 +7°C° 0 mm 3 m/s 764 mmHg 93%

    Poimâine, 24 August, Joi

    Timp Temperatura Precipitaţii Vânt Presiune Umiditate
    00:00 +7°C° 0 mm 3 m/s 764 mmHg 93%
    01:00 +5°C° 0 mm 3 m/s 764 mmHg 93%
    02:00 +5°C° 0 mm 3 m/s 764 mmHg 93%
    03:00 +6°C° 0 mm 2 m/s 764 mmHg 93%
    04:00 +6°C° 0 mm 2 m/s 764 mmHg 93%
    05:00 +5°C° 0 mm 2 m/s 765 mmHg 93%
    06:00 +5°C° 0 mm 2 m/s 765 mmHg 93%
    07:00 +5°C° 0 mm 2 m/s 765 mmHg 93%
    08:00 +7°C° 0 mm 3 m/s 766 mmHg 89%
    09:00 +8°C° 0 mm 3 m/s 766 mmHg 85%
    10:00 +10°C° 0 mm 3 m/s 766 mmHg 80%
    11:00 +11°C° 0,1 mm 3 m/s 766 mmHg 74%
    12:00 +12°C° 0,1 mm 3 m/s 765 mmHg 68%
    13:00 +13°C° 0,1 mm 3 m/s 765 mmHg 62%
    14:00 +13°C° 0,1 mm 3 m/s 765 mmHg 62%
    15:00 +13°C° 0,1 mm 3 m/s 765 mmHg 63%
    16:00 +13°C° 0,1 mm 3 m/s 765 mmHg 64%
    17:00 +11°C° 0 mm 3 m/s 766 mmHg 71%
    18:00 +10°C° 0 mm 3 m/s 766 mmHg 78%
    19:00 +8°C° 0 mm 2 m/s 767 mmHg 85%
    20:00 +7°C° 0 mm 2 m/s 767 mmHg 87%
    21:00 +7°C° 0 mm 2 m/s 768 mmHg 89%
    22:00 +6°C° 0 mm 2 m/s 768 mmHg 90%
    23:00 +6°C° 0 mm 2 m/s 768 mmHg 91%

    25 August, Vineri

    Timp Temperatura Precipitaţii Vânt Presiune Umiditate
    00:00 +6°C° 0 mm 2 m/s 768 mmHg 92%
    01:00 +5°C° 0 mm 2 m/s 768 mmHg 92%
    02:00 +5°C° 0 mm 2 m/s 768 mmHg 92%
    03:00 +5°C° 0 mm 2 m/s 768 mmHg 93%
    04:00 +5°C° 0 mm 2 m/s 768 mmHg 93%
    05:00 +5°C° 0 mm 2 m/s 768 mmHg 93%
    06:00 +5°C° 0 mm 2 m/s 769 mmHg 94%
    07:00 +5°C° 0 mm 2 m/s 769 mmHg 94%
    08:00 +7°C° 0 mm 2 m/s 769 mmHg 86%
    09:00 +9°C° 0 mm 2 m/s 769 mmHg 78%
    10:00 +12°C° 0 mm 2 m/s 769 mmHg 70%
    11:00 +13°C° 0 mm 2 m/s 769 mmHg 64%
    12:00 +15°C° 0 mm 2 m/s 768 mmHg 59%
    13:00 +16°C° 0 mm 2 m/s 768 mmHg 54%
    14:00 +16°C° 0 mm 2 m/s 768 mmHg 56%
    15:00 +15°C° 0 mm 2 m/s 768 mmHg 57%
    16:00 +15°C° 0 mm 2 m/s 767 mmHg 59%
    17:00 +14°C° 0 mm 2 m/s 768 mmHg 66%
    18:00 +12°C° 0 mm 2 m/s 768 mmHg 72%
    19:00 +10°C° 0 mm 2 m/s 769 mmHg 79%
    20:00 +9°C° 0 mm 2 m/s 769 mmHg 82%
    21:00 +8°C° 0 mm 2 m/s 769 mmHg 86%
    22:00 +8°C° 0 mm 2 m/s 770 mmHg 90%
    23:00 +7°C° 0 mm 2 m/s 769 mmHg 91%

    26 August, Sâmbătă

    Timp Temperatura Precipitaţii Vânt Presiune Umiditate
    00:00 +7°C° 0 mm 2 m/s 769 mmHg 92%
    01:00 +6°C° 0 mm 2 m/s 769 mmHg 93%
    02:00 +6°C° 0 mm 2 m/s 769 mmHg 93%
    03:00 +6°C° 0 mm 2 m/s 769 mmHg 93%
    04:00 +6°C° 0 mm 2 m/s 769 mmHg 93%
    05:00 +6°C° 0 mm 2 m/s 769 mmHg 93%
    06:00 +5°C° 0 mm 2 m/s 769 mmHg 93%
    07:00 +5°C° 0 mm 2 m/s 769 mmHg 92%
    08:00 +8°C° 0 mm 2 m/s 769 mmHg 83%
    09:00 +10°C° 0 mm 2 m/s 770 mmHg 73%
    10:00 +14°C° 0 mm 2 m/s 770 mmHg 63%
    11:00 +15°C° 0 mm 2 m/s 769 mmHg 59%
    12:00 +16°C° 0 mm 2 m/s 769 mmHg 55%
    13:00 +16°C° 0 mm 2 m/s 768 mmHg 51%
    14:00 +16°C° 0 mm 2 m/s 768 mmHg 54%
    15:00 +16°C° 0 mm 2 m/s 768 mmHg 57%
    16:00 +15°C° 0 mm 1 m/s 768 mmHg 59%
    17:00 +14°C° 0 mm 1 m/s 768 mmHg 65%
    18:00 +13°C° 0 mm 1 m/s 768 mmHg 70%
    19:00 +11°C° 0 mm 1 m/s 769 mmHg 75%
    20:00 +11°C° 0 mm 1 m/s 769 mmHg 79%
    21:00 +10°C° 0 mm 1 m/s 769 mmHg 82%
    22:00 +9°C° 0 mm 1 m/s 769 mmHg 85%
    23:00 +9°C° 0 mm 1 m/s 769 mmHg 88%

    27 August, Duminică

    Timp Temperatura Precipitaţii Vânt Presiune Umiditate
    00:00 +8°C° 0 mm 1 m/s 769 mmHg 90%
    01:00 +8°C° 0 mm 1 m/s 769 mmHg 92%
    02:00 +7°C° 0 mm 1 m/s 769 mmHg 93%
    03:00 +7°C° 0 mm 1 m/s 769 mmHg 94%
    04:00 +7°C° 0 mm 1 m/s 769 mmHg 94%
    05:00 +7°C° 0 mm 1 m/s 769 mmHg 94%
    06:00 +7°C° 0 mm 1 m/s 769 mmHg 95%
    07:00 +6°C° 0 mm 1 m/s 770 mmHg 95%
    08:00 +9°C° 0 mm 1 m/s 770 mmHg 86%
    09:00 +10°C° 0 mm 2 m/s 770 mmHg 77%
    10:00 +14°C° 0 mm 2 m/s 770 mmHg 68%
    11:00 +14°C° 0 mm 2 m/s 769 mmHg 63%
    12:00 +15°C° 0 mm 2 m/s 769 mmHg 57%
    13:00 +16°C° 0 mm 2 m/s 768 mmHg 52%
    14:00 +16°C° 0 mm 2 m/s 768 mmHg 53%
    15:00 +16°C° 0 mm 2 m/s 768 mmHg 54%
    16:00 +16°C° 0 mm 1 m/s 768 mmHg 55%
    17:00 +14°C° 0 mm 1 m/s 768 mmHg 64%
    18:00 +12°C° 0 mm 1 m/s 768 mmHg 73%
    19:00 +10°C° 0 mm 1 m/s 769 mmHg 83%
    20:00 +9°C° 0 mm 1 m/s 769 mmHg 86%
    21:00 +9°C° 0 mm 1 m/s 769 mmHg 89%
    22:00 +8°C° 0 mm 1 m/s 769 mmHg 92%
    23:00 +8°C° 0 mm 1 m/s 769 mmHg 93%
    Arată mai mult